KR4CWL-13 Weather Reports


time (UTC)temp
C
wind
direction
speed
KPH
gust
KPH
rain 1hr
cm
rain 24hr
cm
rain mn
cm
humidity
%
barometer
mb
20260906125411 22 22 0.0 0.0 0.00 0.15 0.00 99 990.8
20260906124410 22 0 0.0 0.0 0.00 0.15 0.00 99 990.7
20260906123411 21 315 0.0 0.0 0.00 0.15 0.00 99 990.7
20260906122410 21 112 1.6 0.0 0.00 0.15 0.00 99 990.6
20260906121411 21 225 0.0 0.0 0.00 0.15 0.00 99 990.6
20260906120410 21 22 0.0 0.0 0.00 0.15 0.00 99 990.3
20260906115411 21 180 0.0 0.0 0.00 0.15 0.00 99 990.3
20260906114410 21 270 0.0 0.0 0.00 0.15 0.00 99 990.0
20260906113409 21 22 0.0 0.0 0.00 0.15 0.00 99 990.1
20260906112410 21 22 0.0 0.0 0.00 0.15 0.00 99 990.2
20260906111409 21 22 0.0 0.0 0.00 0.15 0.00 99 990.1
20260906110410 21 337 0.0 0.0 0.00 0.15 0.00 99 989.9
20260906105410 20 337 0.0 0.0 0.00 0.15 0.00 99 989.8
20260906104409 20 22 0.0 0.0 0.00 0.15 0.00 99 989.6
20260906103410 20 0 0.0 0.0 0.00 0.15 0.00 99 989.6
20260906102409 20 22 0.0 0.0 0.00 0.15 0.00 99 989.4
20260906101409 20 22 0.0 0.0 0.00 0.15 0.00 99 989.4
20260906100410 20 157 0.0 0.0 0.00 0.15 0.00 99 989.2
20260906095409 20 67 0.0 0.0 0.00 0.15 0.00 99 989.0
20260906094410 20 45 0.0 0.0 0.00 0.15 0.00 99 988.9
20260906093409 20 22 0.0 0.0 0.00 0.15 0.00 99 988.8
20260906092409 20 45 0.0 0.0 0.00 0.15 0.00 99 988.7
20260906091409 20 22 0.0 0.0 0.00 0.15 0.00 99 988.6
20260906090409 20 22 0.0 0.0 0.00 0.15 0.00 99 988.5
20260906085408 20 337 0.0 0.0 0.00 0.15 0.00 99 988.5
20260906084409 20 90 0.0 0.0 0.00 0.15 0.00 99 988.4
20260906083408 20 247 0.0 0.0 0.00 0.15 0.00 99 988.4
20260906082408 20 0 0.0 0.0 0.00 0.15 0.00 99 988.3
20260906081408 20 202 0.0 0.0 0.00 0.15 0.00 99 988.2
20260906080410 20 157 0.0 0.0 0.00 0.15 0.00 99 988.2
20260906075408 20 292 0.0 0.0 0.00 0.15 0.00 99 988.0
20260906074408 20 337 0.0 0.0 0.00 0.15 0.00 99 988.1
20260906073408 20 157 0.0 0.0 0.00 0.15 0.00 99 988.1
20260906072408 20 157 0.0 0.0 0.00 0.15 0.00 99 988.1
20260906071408 20 157 0.0 0.0 0.00 0.15 0.00 99 988.1
20260906070408 20 157 0.0 0.0 0.00 0.15 0.00 99 988.2
20260906065408 21 202 0.0 0.0 0.00 0.15 0.00 99 988.3
20260906064408 21 22 0.0 0.0 0.00 0.15 0.00 99 988.2
20260906063409 21 337 0.0 0.0 0.00 0.15 0.00 99 988.2
20260906062407 21 337 0.0 0.0 0.00 0.15 0.00 99 988.5
20260906061408 20 0 0.0 0.0 0.00 0.15 0.00 99 988.4
20260906060409 20 337 0.0 0.0 0.00 0.15 0.00 99 988.4
20260906055409 21 337 0.0 0.0 0.00 0.15 0.00 99 988.5
20260906054407 21 315 0.0 0.0 0.00 0.15 0.00 99 988.6
20260906053407 21 292 0.0 0.0 0.00 0.15 0.00 99 988.8
20260906052408 21 180 0.0 0.0 0.00 0.15 0.00 99 988.9
20260906051407 21 315 0.0 0.0 0.00 0.15 0.00 99 989.0
20260906050407 21 22 0.0 0.0 0.00 0.15 0.00 99 989.4
20260906045407 21 135 0.0 0.0 0.00 0.15 0.00 99 989.4
20260906044407 21 202 0.0 0.0 0.00 0.15 0.00 99 989.6
20260906043408 21 0 0.0 0.0 0.00 0.15 0.00 99 989.4
20260906042407 21 135 0.0 0.0 0.00 0.15 0.00 99 989.6
20260906041408 21 270 0.0 0.0 0.00 0.15 0.00 99 989.6
20260906040407 21 315 0.0 0.0 0.00 0.15 0.00 99 989.5
20260906035407 21 292 0.0 0.0 0.00 0.15 0.15 99 989.6
20260906034407 21 315 0.0 0.0 0.00 0.15 0.15 99 989.7
20260906033408 21 225 0.0 0.0 0.00 0.15 0.15 99 989.9
20260906032408 21 112 0.0 0.0 0.00 0.15 0.15 99 989.9
20260906031408 21 337 0.0 0.0 0.00 0.15 0.15 99 989.7
20260906030407 21 67 0.0 0.0 0.00 0.15 0.15 99 989.7
20260906025407 21 0 0.0 0.0 0.00 0.15 0.15 99 989.7
20260906024407 21 0 0.0 0.0 0.00 0.15 0.15 99 989.6
20260906023522 21 22 0.0 0.0 0.00 0.15 0.15 99 989.6